Temperature
0 0 1 1 1 1 1 0 1 1 1 1 2 2 2 2 3 3 3 3 3 3 4 4 4 4 4 4 4 4 4 4 4 4 4 4 4 4
-0 -0 0 0 0 0 0 0 0 0 0 1 1 1 2 2 2 2 2 2 3 3 3 3 3 3 3 4 4 4 4 4 4 4 4 4 4 4
-1 -1 -0 -0 -0 -0 -0 -0 -0 -0 -0 0 1 1 1 1 2 2 2 2 2 2 2 3 3 3 3 3 3 3 3 3 3 3 3 3 3 3
-1 -1 -1 -1 -1 -0 -1 -1 -0 -0 -0 -0 0 0 1 1 1 1 1 1 1 1 2 2 2 2 2 2 2 2 2 3 3 3 3 3 3 3
-2 -1 -1 -1 -1 -1 -1 -1 -1 -1 -1 -1 -0 -0 -0 0 0 0 1 1 1 1 1 1 1 2 2 2 2 2 2 2 2 2 2 2 2 2
-2 -2 -2 -1 -1 -1 -1 -1 -1 -1 -1 -1 -1 -1 -1 -0 -0 -0 0 0 0 0 1 1 1 1 1 1 1 1 1 1 2 2 2 2 2 2
-2 -2 -2 -2 -2 -2 -2 -2 -2 -1 -2 -2 -1 -1 -1 -1 -1 -1 -1 -0 -0 -0 -0 -0 0 0 0 0 0 1 1 1 1 1 1 1 1 1
-2 -2 -2 -2 -2 -2 -2 -2 -2 -2 -2 -2 -2 -2 -1 -1 -1 -1 -1 -1 -1 -1 -1 -1 -1 -1 -0 -0 0 0 0 0 0 0 0 1 1 0
-3 -3 -3 -2 -2 -2 -2 -2 -2 -2 -2 -2 -2 -2 -2 -2 -2 -1 -1 -2 -1 -1 -1 -1 -1 -1 -1 -1 -0 -0 -1 -0 -0 -0 -0 -0 -0 0
-3 -3 -3 -3 -2 -2 -2 -2 -2 -2 -2 -2 -2 -2 -2 -2 -2 -2 -2 -2 -2 -2 -2 -2 -2 -2 -2 -1 -1 -1 -1 -1 -1 -1 -1 -1 -1 -1
-3 -3 -3 -3 -3 -3 -3 -2 -2 -2 -2 -2 -2 -3 -3 -3 -2 -2 -3 -3 -3 -3 -2 -3 -3 -3 -2 -2 -2 -2 -2 -1 -1 -1 -1 -1 -1 -1
-3 -3 -3 -3 -3 -3 -3 -2 -2 -2 -3 -3 -3 -3 -3 -3 -3 -3 -3 -3 -3 -3 -3 -3 -3 -3 -3 -3 -2 -2 -2 -2 -2 -2 -2 -2 -2 -2
-4 -3 -3 -3 -3 -3 -3 -3 -3 -3 -3 -3 -3 -3 -3 -3 -3 -3 -3 -3 -3 -4 -4 -4 -4 -4 -4 -4 -3 -3 -3 -3 -3 -2 -2 -2 -2 -2
-4 -3 -3 -3 -3 -3 -3 -3 -3 -3 -3 -3 -3 -4 -4 -4 -3 -3 -3 -4 -4 -4 -4 -4 -4 -4 -4 -4 -4 -4 -3 -3 -3 -3 -3 -3 -3 -3
-4 -4 -4 -4 -3 -3 -3 -3 -3 -3 -4 -3 -4 -4 -4 -4 -4 -4 -4 -4 -4 -4 -4 -4 -4 -5 -5 -5 -5 -4 -4 -4 -4 -4 -4 -4 -4 -3
-4 -4 -4 -4 -4 -4 -4 -4 -4 -4 -4 -4 -4 -4 -4 -4 -4 -4 -4 -4 -4 -4 -5 -5 -5 -5 -5 -5 -5 -5 -5 -5 -5 -5 -4 -4 -4 -4
-5 -4 -4 -4 -4 -4 -4 -4 -4 -4 -4 -4 -4 -4 -4 -4 -4 -4 -4 -5 -5 -5 -5 -5 -5 -5 -5 -5 -5 -5 -5 -5 -5 -5 -5 -5 -5 -5
-5 -5 -5 -5 -5 -5 -5 -5 -5 -5 -5 -5 -5 -5 -5 -5 -5 -5 -5 -5 -5 -5 -5 -5 -5 -5 -5 -5 -5 -5 -6 -6 -5 -5 -5 -5 -5 -5
-5 -5 -5 -5 -5 -5 -5 -5 -5 -5 -5 -5 -5 -5 -5 -5 -5 -5 -5 -5 -5 -6 -6 -6 -6 -6 -6 -6 -6 -6 -6 -6 -6 -5 -5 -6 -5 -5
-5 -6 -6 -5 -5 -5 -5 -5 -5 -5 -5 -5 -5 -5 -5 -5 -6 -6 -6 -6 -6 -6 -6 -6 -6 -6 -6 -6 -6 -6 -6 -6 -6 -6 -6 -6 -6 -5
-6 -6 -6 -6 -6 -6 -6 -6 -6 -6 -6 -6 -6 -6 -6 -6 -6 -6 -6 -6 -6 -6 -6 -6 -6 -6 -6 -6 -6 -6 -6 -6 -6 -6 -6 -6 -6 -6
-6 -6 -6 -6 -6 -6 -6 -6 -6 -6 -6 -6 -6 -6 -6 -6 -6 -6 -6 -6 -6 -6 -6 -6 -6 -6 -6 -7 -7 -7 -6 -6 -6 -6 -6 -6 -6 -7
-7 -6 -6 -6 -6 -6 -6 -6 -6 -6 -6 -6 -6 -6 -6 -6 -6 -6 -6 -6 -6 -6 -6 -6 -6 -6 -7 -7 -7 -7 -7 -7 -7 -6 -6 -6 -6 -6
Wind_Speed
2 2 2 3 3 3 2 2 3 4 5 3 2 2 2 2 4 4 5 7 7 7 6 6 5 5 5 4 5 5 5 3 3 3 4 5 5 5
2 2 3 2 2 2 3 3 3 4 5 3 3 3 3 3 5 5 6 7 6 6 6 5 5 5 4 4 4 4 4 3 3 3 4 5 5 5
3 3 3 3 2 2 3 3 3 3 5 5 3 3 3 3 4 5 5 4 4 5 5 5 5 4 4 4 4 4 4 4 3 3 4 4 5 5
3 3 4 3 3 3 3 3 3 4 4 7 5 4 4 4 3 4 4 4 4 4 5 6 5 4 4 5 4 5 5 4 3 3 4 4 4 4
4 4 4 4 4 3 4 3 3 4 4 5 5 4 3 3 3 3 3 3 4 4 4 5 5 5 5 5 4 5 5 4 3 4 4 4 4 3
4 4 4 4 5 5 4 4 4 4 4 4 4 4 3 3 2 2 3 2 2 3 3 4 5 5 5 5 5 5 5 3 3 4 3 3 3 3
4 4 4 5 6 5 5 4 4 4 4 4 4 3 3 3 2 1 2 2 2 1 1 3 4 3 4 5 5 5 5 4 3 3 3 3 3 3
4 4 5 5 6 8 8 7 5 4 4 4 4 4 4 4 2 2 1 1 2 1 1 3 2 1 3 4 5 4 3 3 2 2 3 3 3 4
4 4 4 5 5 5 6 7 7 7 6 5 4 5 4 4 3 2 2 2 2 2 1 2 1 2 3 5 6 4 2 2 2 3 3 4 4 5
4 4 5 5 5 4 4 4 4 4 5 4 4 4 4 3 3 3 2 1 1 1 0 1 2 2 3 4 4 2 2 3 4 4 4 4 5 5
4 4 4 4 6 5 4 4 4 4 4 5 5 5 5 4 3 1 1 0 1 2 1 0 1 2 2 2 3 4 4 4 5 5 5 5 5 6
4 4 5 6 7 6 3 3 4 4 2 2 2 3 3 3 3 2 2 2 1 2 1 1 1 2 2 2 1 3 4 5 5 6 5 5 6 5
4 4 4 6 6 7 5 4 5 3 2 2 2 2 1 1 2 1 1 2 1 2 1 1 2 2 1 2 3 2 2 3 5 5 5 6 6 5
5 4 4 5 6 7 5 4 5 3 1 1 1 1 1 1 1 0 0 0 1 2 2 1 1 1 2 3 3 2 2 3 3 2 4 6 6 7
4 6 6 5 5 4 4 4 2 1 1 1 1 1 1 0 1 1 1 2 2 2 2 2 1 1 1 2 2 3 3 2 2 2 2 3 4 4
4 5 5 4 4 3 3 2 1 1 1 2 1 1 0 0 0 1 1 1 1 2 2 2 2 1 1 2 2 3 2 2 2 2 3 3 4 4
3 2 2 2 2 2 2 1 1 0 1 0 0 0 0 0 0 0 1 1 0 1 2 2 2 1 1 1 1 2 2 2 2 2 3 3 3 4
3 2 2 2 2 2 1 1 1 1 1 0 1 1 0 0 0 0 0 0 0 1 1 1 1 2 2 2 1 1 1 1 2 2 2 3 4 4
3 2 2 2 2 1 1 1 1 1 1 0 1 1 1 0 0 0 0 0 0 1 1 1 1 1 1 2 3 2 1 2 2 2 2 2 3 4
2 2 2 2 1 1 1 1 1 1 0 0 1 1 1 1 0 0 1 1 0 1 1 1 1 1 1 2 2 3 4 2 1 2 3 3 2 4
3 2 2 2 2 1 1 1 1 1 1 1 1 1 1 1 1 0 0 1 0 1 1 2 2 2 1 0 1 2 2 5 4 2 2 3 3 3
3 3 2 2 2 2 1 1 1 1 1 0 1 1 1 1 1 1 1 0 0 1 1 2 1 1 1 0 0 1 2 4 6 7 5 3 2 2
3 3 2 2 2 2 1 1 1 1 1 1 1 1 1 1 1 1 1 0 0 0 1 1 2 2 1 1 1 1 2 3 3 4 4 6 6 4
Wind_Direction
275 278 279 283 282 286 287 279 272 288 287 283 295 285 294 295 310 318 314 318 314 312 308 302 301 306 305 300 306 307 310 305 316 316 312 316 310 308
268 269 278 282 285 291 291 289 280 270 279 285 289 291 297 300 303 308 299 305 305 309 316 319 316 315 314 312 317 315 315 313 313 313 313 318 318 312
292 282 280 283 285 286 288 288 286 279 279 289 288 295 295 294 299 298 293 290 280 296 304 308 306 311 314 311 308 310 310 301 303 308 311 316 317 319
287 290 287 285 282 281 281 281 283 281 277 285 291 298 295 288 293 296 301 302 284 284 292 297 296 300 301 298 300 307 302 299 304 307 309 311 313 316
278 282 283 277 273 279 278 279 287 292 284 279 286 292 297 298 303 300 307 300 300 287 291 292 297 302 300 297 299 298 301 298 304 308 310 315 321 320
272 269 273 270 269 269 270 273 282 288 287 281 282 286 294 298 303 309 318 312 305 312 315 311 313 306 301 297 300 291 295 297 298 303 307 307 317 320
275 271 271 274 278 277 274 268 270 273 278 281 280 284 287 297 291 294 304 320 320 328 357 319 315 313 312 308 303 292 290 286 288 298 304 305 311 315
281 283 279 274 281 284 282 280 273 267 269 268 272 273 278 279 278 281 284 305 301 330 354 316 321 338 319 316 319 311 292 290 302 311 316 310 314 316
276 278 283 280 281 276 281 286 282 274 264 254 254 261 271 279 265 265 268 259 267 279 327 304 331 319 309 318 321 314 314 336 340 339 337 336 327 321
274 273 275 279 275 277 272 276 276 275 267 256 245 263 271 274 250 241 251 265 297 299 328 286 310 314 327 321 322 335 354 347 342 345 346 341 336 329
280 275 273 278 282 289 274 269 278 285 276 263 265 274 287 293 288 264 271 207 306 314 335 305 313 327 323 326 336 0 352 342 341 344 342 339 338 338
291 284 277 280 290 287 259 255 265 271 275 298 298 299 295 292 293 258 223 211 240 289 326 5 316 348 330 321 344 339 333 336 334 331 336 344 346 346
286 284 281 284 288 287 272 251 261 272 262 264 281 296 307 306 297 267 237 207 215 261 295 344 300 316 293 307 322 317 323 334 335 336 342 346 346 344
277 278 282 291 291 289 277 274 279 280 259 257 267 284 291 297 294 240 286 310 273 265 271 266 264 268 284 303 308 325 345 332 326 330 338 344 348 347
286 294 301 307 306 294 289 289 281 246 225 233 247 264 276 224 110 62 46 29 359 325 294 275 255 271 265 268 288 306 324 332 336 359 349 338 330 331
303 303 307 314 317 316 314 308 274 219 212 221 233 268 323 41 111 117 100 58 25 355 340 321 288 254 278 282 278 298 313 306 336 341 336 332 329 328
323 326 323 328 331 340 344 350 358 320 258 232 226 260 315 358 20 85 100 81 1 328 345 5 12 349 302 275 274 284 296 308 307 322 338 338 333 326
341 321 308 313 309 313 315 321 333 304 272 220 195 201 232 263 336 23 39 103 284 309 323 332 357 6 8 6 302 247 287 311 325 333 335 333 329 332
339 320 314 311 312 322 329 319 299 289 281 212 213 232 241 236 240 265 306 276 300 312 321 332 348 352 349 334 344 355 335 333 334 330 325 327 320 321
333 320 312 311 317 328 328 320 322 325 295 260 256 234 205 215 237 251 222 213 246 319 337 343 336 315 283 294 306 323 324 313 322 322 325 329 321 319
330 325 321 320 320 322 318 310 303 298 293 266 252 227 197 189 221 242 234 269 272 310 304 304 299 315 330 20 358 341 353 358 347 318 311 320 325 329
320 316 315 312 313 315 315 313 317 325 324 290 237 228 209 195 215 222 224 224 240 310 314 320 328 340 347 344 13 351 347 352 3 8 2 336 311 309
316 310 309 310 311 313 307 303 298 298 298 292 277 244 211 221 225 217 223 213 194 345 350 341 352 12 31 68 64 20 360 356 360 6 2 1 360 341
Height
1478 1478 1478 1478 1478 1478 1478 1478 1478 1475 1473 1473 1473 1472 1472 1471 1469 1468 1467 1466 1465 1465 1465 1465 1465 1465 1466 1466 1466 1466 1467 1467 1468 1468 1469 1469 1470 1470
1475 1475 1475 1475 1475 1475 1475 1475 1475 1474 1471 1469 1469 1469 1468 1467 1466 1464 1463 1462 1462 1461 1461 1461 1461 1461 1461 1461 1461 1462 1462 1463 1464 1464 1464 1465 1465 1465
1472 1472 1472 1472 1472 1472 1471 1471 1471 1471 1468 1466 1466 1465 1464 1463 1461 1460 1459 1458 1458 1457 1457 1456 1457 1457 1457 1457 1457 1458 1458 1459 1459 1460 1460 1461 1461 1461
1469 1469 1469 1469 1468 1468 1468 1468 1467 1467 1466 1463 1461 1460 1460 1459 1457 1456 1455 1455 1454 1454 1453 1453 1453 1453 1453 1453 1454 1454 1454 1455 1455 1456 1456 1456 1457 1457
1466 1466 1466 1465 1465 1465 1464 1464 1463 1463 1462 1460 1457 1457 1456 1455 1454 1453 1451 1451 1451 1450 1449 1449 1449 1449 1449 1450 1450 1450 1450 1450 1451 1451 1452 1452 1453 1453
1463 1463 1462 1462 1462 1461 1461 1460 1459 1458 1458 1456 1454 1453 1452 1451 1450 1449 1447 1447 1447 1447 1446 1446 1446 1446 1446 1446 1446 1446 1446 1447 1447 1447 1448 1448 1449 1449
1460 1459 1459 1459 1458 1458 1457 1456 1456 1455 1454 1452 1451 1450 1449 1448 1446 1445 1444 1444 1444 1444 1443 1443 1442 1442 1442 1442 1442 1442 1442 1443 1443 1443 1444 1444 1445 1445
1456 1456 1455 1455 1454 1454 1454 1453 1452 1451 1450 1449 1447 1446 1445 1444 1443 1442 1442 1441 1441 1442 1440 1440 1440 1439 1439 1439 1439 1439 1439 1439 1440 1440 1440 1441 1441 1442
1453 1452 1452 1451 1451 1450 1449 1448 1448 1447 1447 1446 1444 1443 1442 1441 1440 1439 1439 1438 1438 1438 1438 1436 1437 1436 1437 1436 1436 1436 1436 1436 1436 1437 1437 1437 1438 1438
1450 1449 1449 1448 1447 1447 1446 1445 1444 1443 1442 1442 1441 1440 1439 1438 1438 1437 1436 1436 1436 1436 1436 1434 1434 1434 1434 1433 1434 1434 1434 1434 1434 1434 1434 1434 1434 1434
1447 1446 1445 1445 1444 1444 1442 1441 1440 1439 1439 1438 1438 1437 1436 1436 1435 1434 1433 1433 1432 1433 1433 1432 1431 1431 1431 1431 1431 1431 1431 1431 1431 1431 1431 1431 1431 1431
1443 1442 1442 1441 1441 1440 1439 1438 1436 1436 1435 1434 1434 1433 1433 1432 1432 1432 1431 1431 1430 1430 1430 1430 1429 1429 1429 1429 1429 1429 1429 1429 1429 1428 1428 1428 1428 1427
1439 1438 1438 1437 1437 1436 1436 1435 1434 1433 1432 1431 1431 1430 1430 1429 1429 1429 1429 1429 1428 1428 1429 1429 1428 1428 1428 1427 1426 1427 1427 1426 1426 1425 1425 1425 1425 1424
1436 1435 1435 1434 1433 1433 1432 1431 1431 1430 1429 1429 1428 1428 1427 1427 1427 1427 1427 1427 1427 1427 1427 1427 1426 1426 1426 1425 1424 1424 1424 1424 1423 1423 1422 1422 1422 1422
1433 1432 1431 1431 1430 1429 1429 1428 1428 1427 1426 1426 1426 1426 1426 1425 1425 1425 1425 1425 1425 1425 1425 1425 1425 1424 1424 1423 1422 1422 1422 1421 1421 1421 1420 1420 1419 1418
1430 1429 1428 1428 1427 1426 1426 1425 1425 1424 1424 1424 1424 1424 1424 1424 1424 1423 1423 1423 1423 1423 1423 1423 1423 1422 1421 1421 1421 1420 1420 1420 1420 1419 1418 1418 1417 1417
1426 1426 1425 1424 1424 1423 1423 1423 1423 1423 1423 1423 1423 1423 1423 1422 1422 1422 1421 1421 1420 1420 1420 1421 1421 1420 1420 1420 1419 1419 1419 1419 1419 1418 1417 1416 1415 1415
1425 1423 1423 1422 1422 1421 1421 1421 1421 1421 1421 1421 1421 1421 1421 1421 1421 1421 1420 1420 1419 1419 1419 1419 1419 1418 1418 1418 1419 1418 1418 1417 1417 1417 1416 1414 1413 1413
1423 1422 1421 1421 1420 1420 1420 1420 1420 1420 1420 1420 1420 1420 1420 1419 1419 1419 1419 1419 1419 1419 1418 1418 1418 1417 1416 1416 1418 1418 1417 1416 1415 1415 1414 1413 1412 1411
1421 1420 1420 1419 1419 1419 1419 1419 1419 1419 1419 1419 1419 1419 1418 1418 1418 1418 1418 1418 1418 1418 1417 1417 1417 1417 1416 1416 1416 1416 1417 1416 1415 1413 1413 1412 1411 1411
1420 1419 1419 1418 1418 1418 1418 1418 1418 1418 1418 1418 1418 1417 1417 1417 1417 1417 1417 1417 1417 1416 1416 1416 1417 1417 1416 1416 1415 1415 1415 1416 1415 1413 1412 1411 1409 1408
1419 1418 1417 1417 1417 1417 1417 1416 1416 1416 1416 1416 1416 1416 1416 1416 1416 1416 1416 1416 1416 1416 1415 1416 1416 1416 1415 1415 1415 1414 1414 1414 1414 1413 1412 1411 1410 1407
1418 1417 1416 1416 1415 1415 1415 1415 1415 1415 1415 1415 1415 1415 1415 1415 1415 1415 1415 1415 1415 1415 1415 1415 1415 1414 1414 1415 1414 1414 1414 1413 1412 1411 1411 1411 1410 1408